Погода в Эль-Минье

Египет     28°16′55″N   30°09′21″E
темп.,
°C
ветер,
м/с
пор.,
м/с
влажн.,
%
обл.,
%
осадки,
мм/ч
давл.,
гПа
погр.,
м
20 января, чт
чт2023:00+10с48535 0.0 1028151
02:00+8с45595 0.0 102871
05:00+7ссз44665 0.0 102857
08:00+8с46635 0.0 1030146
11:00+12с56425 0.0 10301334
14:00+13с56375 0.0 10281406
17:00+12ссв46380 0.0 1027328
20:00+10с44450 0.0 102847
21 января, пт
пт2123:00+9с33510 0.0 102930
02:00+8ссв45580 0.0 102857
05:00+7с46650 0.0 102775
08:00+7ссв36630 0.0 1028151
11:00+12ссв44430 0.0 1027693
14:00+14с44355 0.0 10251169
17:00+13с44385 0.0 1024185
20:00+11с33450 0.0 102531
22 января, сб
сб2223:00+10ссз44460 0.0 102533
02:00+9ссз33530 0.0 102428
05:00+7с33600 0.0 102330
08:00+8ссз33600 0.0 102470
11:00+12сз34420 0.0 1024742
14:00+15сз45305 0.0 10211203
17:00+14сз453254 0.0 1020107
20:00+11з443982 0.0 102239
23 января, вс
вс2323:00+10сз454510 0.0 102251
02:00+9зсз33500 0.0 102126
05:00+8зсз44540 0.0 102132
08:00+9зсз35540 0.0 1022108
11:00+14зсз57390 0.0 1022771
14:00+16зсз67393 0.0 10201614
17:00+16сз574299 0.0 1020252
20:00+14ссз5847100 0.0 1021496
24 января, пн
пн2423:00+11ссв58645 0.0 1023181
02:00+9св34665 0.0 102255
05:00+9сз33670 0.0 102323
08:00+9зсз35640 0.0 1025123
11:00+13зсз67443 0.0 10251109
14:00+15сз56397 0.0 10231768
17:00+14ссз67365 0.0 1023494
20:00+11с34485 0.0 102546